Showing default

ERS 6, 608

Orbit data source: Space-Track

ERS 6, 608 is a payload satellite owned by USAF SSD (US) in LEO that was launched on Thu, 09 May 1963 UTC via an ATLAS AGENA B launch vehicle from the Air Force Western Test Range (AFWTR). Payload-class satellites include a variety of spacecraft equipped with specific instruments for various scientific and technological missions. These include communications satellites like Starlink; space stations such as the ISS; scientific satellites like the Hubble; Earth observation satellites from companies like Planet Labs, Umbra, and HawkEye 360; GPS; miniature CubeSats for education and research; and military/defense satellites.

Loading next visibility...
Identifier
608, 1963-014C
Orbit
LEO
Country
Flag of USUS
Related business
Manufacturer
TRW
Mission
Spacecraft
Bus & Motor
TRS, Unknown motor
Mass
1 kg wet, 1 kg dry
Launch date (UTC)
1963-05-09 (63 years ago)
Launch vehicle
ATLAS AGENA B
Launch site
Air Force Western Test Range (AFWTR)
Object type
Payload
Rocket body
Debris
Shape & HBR
Unknown
Radar Cross Section
Medium (>0.1 m² and <1 m²)

Expand to show TLE details & history
Last TLE update: 1 day ago

TLE from 1 day ago
0 ERS 6
1 00608U 63014C   25340.04632176  .00000011  00000-0  39522-2 0  9996
2 00608  87.3438 211.6039 0034865 201.0323 158.9099  8.65284541976790
Epoch: 2025-12-06T01:06Z
TLE epoch observation values (Epoch: 2025-12-06T01:06:42.200Z)
Latitude
0.00008°
Longitude
119.84839°
Altitude
3,678.859 km
Speed
6.286 km/s
True Right ascension
14h 06m 24s
True Declination
0° 00' 00"
Sunlit
Object was in daylight at epoch
Visualization orbit readout
Latitude
Unknown
Longitude
Unknown
Altitude
Unknown
Speed
Unknown
Apparent Right ascension
Unknown
Apparent Declination
Unknown
Sunlit
N/A
Visualization observer readout
Local Sidereal Time
09:16:00
Azimuth
Unknown
Elevation
Unknown
Doppler factor
Unknown
Orbital elements
Apogee altitude
3,676.809 km
Perigee altitude
3,606.94 km
Semi-major axis
10,020.011 km
Eccentricity
0.00349
Inclination
87.3438°
RAAN
211.6039°
Arg. of periapsis
201.0323°
True anomaly
159.05308°
Mean anomaly
158.9099°
Eccentric anomaly
158.98155°
Mean motion
2.16392 °/min
Orbital period
166.36 mins
BSTAR
0.0039522

Documentation

Showing up to 5 results
|